DELTA 1 DEB, 27727

Orbit data source: Space-Track

DELTA 1 DEB, 27727 is space debris in LEO originally from a launch on Thu, 29 Jul 1976 UTC launched from the Air Force Western Test Range (AFWTR). Debris objects in space refer to the collection of defunct objects orbiting the Earth. Examples of debris include non-operational satellites, rocket bodies, and fragments generated from explosions, collisions, or faulty payload assembly.

Loading next visibility...
Identifier
27727, 1976-077FS
Orbit
LEO
Country
Flag of USUS
Related business
Manufacturer
Unknown
Mission
Spacecraft
Bus & Motor
Unknown
Mass
Unknown
Launch date (UTC)
1976-07-29 (50 years ago)
Launch vehicle
Unknown
Launch site
Air Force Western Test Range (AFWTR)
Object type
Payload
Rocket body
Debris
Shape & HBR
Unknown shape, 0.1 m
Radar Cross Section
Medium (>0.1 m² and <1 m²)

Expand to show TLE details & history
Last TLE update: 2 days ago

TLE from 2 days ago
0 DELTA 1 DEB
1 27727U 76077FS  26149.73942500  .00000031  00000-0  10305-2 0  9999
2 27727 102.7127 240.5428 0414459 190.5053 325.9636 11.68385530509426
Epoch: 2026-05-29T17:44Z
TLE epoch observation values (Epoch: 2026-05-29T17:44:46.320Z)
Latitude
25.64743°
Longitude
-86.72801°
Altitude
1,551.127 km
Speed
7.212 km/s
True Right ascension
04h 26m 55s
True Declination
25° 31' 37"
Sunlit
Object was in daylight at epoch
Visualization orbit readout
Latitude
Unknown
Longitude
Unknown
Altitude
Unknown
Speed
Unknown
Apparent Right ascension
Unknown
Apparent Declination
Unknown
Sunlit
N/A
Visualization observer readout
Local Sidereal Time
15:34:32
Azimuth
Unknown
Elevation
Unknown
Doppler factor
Unknown
Orbital elements
Apogee altitude
2,163.208 km
Perigee altitude
1,483.377 km
Semi-major axis
8,201.43 km
Eccentricity
0.04145
Inclination
102.7127°
RAAN
240.5428°
Arg. of periapsis
190.5053°
True anomaly
323.18737°
Mean anomaly
325.9636°
Eccentric anomaly
324.58758°
Mean motion
2.92219 °/min
Orbital period
123.2 mins
BSTAR
0.0010305
Loading maneuver chart data...
Computing Atmospheric mass density...
Loading historical data...
Loading historical data...
Loading historical data...
Loading historical data...
Loading historical data...
Loading historical data...
Loading historical data...

Documentation

Showing up to 5 results
|